Tracking 19720 objects as of 26-Jun-2019
HD Live streaming from Space Station
objects crossing your sky now

FENGYUN 1C DEB

Track FENGYUN 1C DEB now!
10-day predictions


NORAD ID: 32114
Int'l Code: 1999-025CRG
Perigee: 698.1 km
Apogee: 815.0 km
Inclination: 100.0 °
Period: 99.8 minutes
Semi major axis: 7127 km
RCS: 0.0153 m2 (small)
Launch date: May 10, 1999
Source: People's Republic of China (PRC)
Launch site: Taiyaun Space Center, China (TSC)

Note: This is SATELLITE DEBRIS
aabbcc
Your satellite tracking list
Your tracking list is empty




NASA's NSSDC Master Catalog

Two Line Element Set (TLE):
1 32114U 99025CRG 19176.24806683  .00000259  00000-0  92117-4 0  9997
2 32114  99.9583 195.4783 0082000  27.7564 332.7961 14.42752620627654
Source of the keplerian elements: AFSPC